This is the latest recevied weather packets stored in our database for station/object F4AMY-13. If no packets are shown the sender has not sent any weather packets the latest 10 day(s).
| Time | Temp. | Humidity | Pressure | Rain* | Wind** | Luminosity | Snow |
|---|---|---|---|---|---|---|---|
| 1777707154 | 17.22° C | 46% | 1022.9 hPa | 0 mm | 14.75 m/s, ° | 33 W/m² | - |
| 1777706854 | 17.22° C | 46% | 1022.8 hPa | 0 mm | 13.86 m/s, ° | 31 W/m² | - |
| 1777706554 | 16.67° C | 61% | 1022.8 hPa | 0 mm | 14.31 m/s, ° | 32 W/m² | - |
| 1777706254 | 16.11° C | 61% | 1022.7 hPa | 0 mm | 14.31 m/s, ° | 32 W/m² | - |
| 1777705954 | 15.56° C | 62% | 1022.7 hPa | 0 mm | 13.86 m/s, ° | 31 W/m² | - |
| 1777705654 | 15° C | 63% | 1022.7 hPa | 0 mm | 13.41 m/s, ° | 30 W/m² | - |
| 1777705354 | 14.44° C | 66% | 1022.7 hPa | 0 mm | 12.96 m/s, ° | 29 W/m² | - |
| 1777705054 | 13.89° C | 74% | 1022.7 hPa | 0 mm | 12.07 m/s, ° | 27 W/m² | - |
| 1777704754 | 12.78° C | 73% | 1022.6 hPa | 0 mm | 11.18 m/s, ° | 25 W/m² | - |
| 1777704454 | 12.22° C | 77% | 1022.7 hPa | 0 mm | 10.28 m/s, ° | 23 W/m² | - |
| 1777704154 | 11.67° C | 75% | 1022.8 hPa | 0 mm | 9.39 m/s, ° | 21 W/m² | - |
| 1777703854 | 11.11° C | 82% | 1022.7 hPa | 0 mm | 8.94 m/s, ° | 20 W/m² | - |
| 1777703553 | 10.56° C | 85% | 1022.7 hPa | 0 mm | 8.49 m/s, ° | 19 W/m² | - |
| 1777703254 | 10° C | 90% | 1022.9 hPa | 0 mm | 7.6 m/s, ° | 17 W/m² | - |
| 1777702953 | 9.44° C | 92% | 1022.7 hPa | 0 mm | 7.15 m/s, ° | 16 W/m² | - |
| 1777702653 | 8.89° C | 93% | 1022.8 hPa | 0 mm | 6.71 m/s, ° | 15 W/m² | - |
| 1777702353 | 8.33° C | 94% | 1022.7 hPa | 0 mm | 2.68 m/s, ° | 6 W/m² | - |
| 1777702053 | 7.78° C | 94% | 1022.8 hPa | 0 mm | 2.24 m/s, ° | 5 W/m² | - |
| 1777701753 | 7.22° C | 93% | 1022.7 hPa | 0 mm | 1.79 m/s, ° | 4 W/m² | - |
| 1777701453 | 6.67° C | 93% | 1022.7 hPa | 0 mm | 1.79 m/s, ° | 4 W/m² | - |
| 1777701153 | 6.67° C | 93% | 1022.8 hPa | 0 mm | 1.34 m/s, ° | 3 W/m² | - |
| 1777700853 | 6.67° C | 93% | 1022.7 hPa | 0 mm | 1.34 m/s, ° | 3 W/m² | - |
| 1777700553 | 6.11° C | 93% | 1022.9 hPa | 0 mm | 0.89 m/s, ° | 2 W/m² | - |
| 1777700253 | 6.11° C | 93% | 1023 hPa | 0 mm | 0.45 m/s, ° | 1 W/m² | - |
| 1777699953 | 6.11° C | 93% | 1022.9 hPa | 0 mm | 0 m/s | 0 W/m² | - |
* Rain latest hour (hover to see other rain measurements)
** Current wind speed in m/s (hover to see current wind gust speed)